Tracking 20041 objects as of 22-Nov-2019
Live streaming from Space Station
objects crossing your sky now

SL-12 DEB

Track SL-12 DEB now!
10-day predictions


NORAD ID: 42978
Int'l Code: 2010-041T
Perigee: 532.5 km
Apogee: 17,686.4 km
Inclination: 65.3 °
Period: 319.5 minutes
Semi major axis: 15480 km
RCS: Unknown
Launch date: September 2, 2010
Source: Commonwealth of Independent States (former USSR) (CIS)
Launch site: TYURATAM MISSILE AND SPACE COMPLEX (TTMTR)

Note: This is SATELLITE DEBRIS
aabbcc
Your satellite tracking list
Your tracking list is empty




NASA's NSSDC Master Catalog

Two Line Element Set (TLE):
1 42978U 10041T   19323.88983929  .00000961  00000-0  25211-2 0  9999
2 42978  65.3451 234.4198 5540534  30.0562 352.6009  4.50741461 36320
Source of the keplerian elements: AFSPC